DW6083 Weather Reports


Display with metric or nautical units.
time (UTC)temp
F
wind
direction
speed
MPH
gust
MPH
rain 1hr
in
rain 24hr
in
rain mn
in
humidity
%
barometer
mb
20260901071554 0 98 0.0 0.0 0.00 0.00 0.00 1018.8
20260901070058 0 98 0.0 0.0 0.00 0.00 0.00 1018.9
20260901064543 0 98 0.0 0.0 0.00 0.00 0.00 1019.0
20260901063045 0 98 0.0 0.0 0.00 0.00 0.00 1019.0
20260901061534 0 98 0.0 0.0 0.00 0.00 0.00 1019.0
20260901060030 0 98 0.0 0.0 0.00 0.00 0.00 1019.1
20260901054525 0 98 0.0 0.0 0.00 0.00 0.00 1019.1
20260901053022 0 98 0.0 0.0 0.00 0.00 0.00 1019.1
20260901051516 0 98 0.0 0.0 0.00 0.00 0.00 1019.2
20260901050013 0 98 0.0 0.0 0.00 0.00 0.00 1019.1
20260901044508 0 98 0.0 0.0 0.00 0.00 0.00 1019.1
20260901043004 0 98 0.0 0.0 0.00 0.00 0.00 1019.1
20260901041600 0 98 0.0 0.0 0.00 0.00 0.00 1019.0
20260901040057 0 98 0.0 0.0 0.00 0.00 0.00 1019.0
20260901034602 0 98 0.0 0.0 0.00 0.00 0.00 1019.1
20260901033054 0 98 0.0 0.0 0.00 0.00 0.00 1018.8
20260901031557 0 98 0.0 0.0 0.00 0.00 0.00 1018.8
20260901030054 0 98 0.0 0.0 0.00 0.00 0.00 1018.9
20260901024557 0 98 0.0 0.0 0.00 0.00 0.00 1018.9
20260901023052 0 98 0.0 0.0 0.00 0.00 0.00 1018.9
20260901021611 0 98 0.0 0.0 0.00 0.00 0.00 1018.9
20260901020110 0 98 0.0 0.0 0.00 0.00 0.00 1018.8
20260901014556 0 98 0.0 0.0 0.00 0.00 0.00 1018.7
20260901013056 0 98 0.0 0.0 0.00 0.00 0.00 1018.5
20260901011550 0 98 0.0 0.0 0.00 0.00 0.00 1018.4
20260901010047 0 98 0.0 0.0 0.00 0.00 0.00 1018.1
20260901004544 0 98 0.0 0.0 0.00 0.00 0.00 1018.0
20260901003044 0 98 0.0 0.0 0.00 0.00 0.00 1017.8
20260901001537 0 98 0.0 0.0 0.00 0.00 0.00 1017.8
20260901000029 0 98 0.0 0.0 0.00 0.00 0.00 1017.8
20260831234525 0 98 0.0 0.0 0.00 0.00 0.00 1017.8
20260831233034 0 101 0.0 0.0 0.00 0.00 0.00 1017.9
20260831231516 0 101 0.0 0.0 0.00 0.00 0.00 1017.9
20260831230012 0 101 1.0 3.0 0.00 0.00 0.00 1017.9
20260831224512 0 101 1.0 4.0 0.00 0.00 0.00 1017.9
20260831223011 0 101 1.0 4.0 0.00 0.00 0.00 1017.9
20260831221507 0 101 2.0 4.0 0.00 0.00 0.00 1017.8
20260831220007 0 101 1.0 6.0 0.00 0.00 0.00 1018.0
20260831214506 0 101 0.0 2.0 0.00 0.00 0.00 1018.1
20260831213057 0 101 1.0 4.0 0.00 0.00 0.00 1018.2
20260831211607 0 101 2.0 4.0 0.00 0.00 0.00 1018.0
20260831210053 0 101 1.0 3.0 0.00 0.00 0.00 1018.1
20260831204545 0 101 0.0 6.0 0.00 0.00 0.00 1018.2
20260831203040 0 101 1.0 6.0 0.00 0.00 0.00 1018.4
20260831201542 0 101 1.0 4.0 0.00 0.00 0.00 1018.5
20260831200038 0 101 1.0 6.0 0.00 0.00 0.00 1018.6
20260831194545 0 101 1.0 6.0 0.00 0.00 0.00 1018.8
20260831193026 0 105 2.0 6.0 0.00 0.00 0.00 1018.9
20260831191516 0 105 1.0 6.0 0.00 0.00 0.00 1019.1
20260831190013 0 109 1.0 4.0 0.00 0.00 0.00 1019.2
20260831184518 0 107 4.0 7.0 0.00 0.00 0.00 1019.5
20260831183002 0 106 0.0 3.0 0.00 0.00 0.00 1019.6
20260831181559 0 106 2.0 8.0 0.00 0.00 0.00 1019.9
20260831180054 0 107 1.0 4.0 0.00 0.00 0.00 1020.1
20260831174555 0 107 2.0 6.0 0.00 0.00 0.00 1020.2
20260831173058 0 105 2.0 4.0 0.00 0.00 0.00 1020.1
20260831171546 0 107 3.0 8.0 0.00 0.00 0.00 1020.3
20260831170052 0 107 0.0 7.0 0.00 0.00 0.00 1020.4
20260831164547 0 107 2.0 4.0 0.00 0.00 0.00 1020.4
20260831163050 0 107 4.0 8.0 0.00 0.00 0.00 1020.6
20260831161541 0 105 0.0 6.0 0.00 0.00 0.00 1020.8
20260831160037 0 105 0.0 2.0 0.00 0.00 0.00 1021.0
20260831154534 0 105 2.0 6.0 0.00 0.00 0.00 1021.0
20260831153027 0 105 1.0 8.0 0.00 0.00 0.00 1021.0
20260831151523 0 111 1.0 4.0 0.00 0.00 0.00 1021.0
20260831150018 0 111 0.0 2.0 0.00 0.00 0.00 1021.0
20260831144525 0 111 3.0 6.0 0.00 0.00 0.00 1021.0
20260831143010 0 111 2.0 6.0 0.00 0.00 0.00 1021.0
20260831141505 0 111 0.0 1.0 0.00 0.00 0.00 1020.9
20260831140002 0 111 0.0 1.0 0.00 0.00 0.00 1021.0
20260831134601 0 111 0.0 1.0 0.00 0.00 0.00 1020.9
20260831133053 0 117 0.0 1.0 0.00 0.00 0.00 1020.8
20260831131552 0 117 0.0 1.0 0.00 0.00 0.00 1020.8
20260831130050 0 117 0.0 0.0 0.00 0.00 0.00 1020.7
20260831124544 0 117 0.0 0.0 0.00 0.00 0.00 1020.6
20260831123039 0 117 0.0 0.0 0.00 0.00 0.00 1020.7
20260831121537 0 117 0.0 0.0 0.00 0.00 0.00 1020.8
20260831120030 0 117 0.0 1.0 0.00 0.00 0.00 1020.7
20260831114531 0 117 0.0 0.0 0.00 0.00 0.00 1020.5
20260831113021 0 117 0.0 0.0 0.00 0.00 0.00 1020.4
20260831111517 0 117 0.0 0.0 0.00 0.00 0.00 1020.4
20260831110013 0 117 0.0 0.0 0.00 0.00 0.00 1020.3
20260831104511 0 117 0.0 0.0 0.00 0.00 0.00 1020.2
20260831103004 0 117 0.0 0.0 0.00 0.00 0.00 1020.3
20260831101700 0 117 0.0 0.0 0.00 0.00 0.00 1020.0
20260831094550 0 117 0.0 0.0 0.00 0.00 0.00 1020.0
20260831093047 0 117 0.0 0.0 0.00 0.00 0.00 1020.0
20260831091549 0 117 0.0 0.0 0.00 0.00 0.00 1020.0
20260831090037 0 117 0.0 0.0 0.00 0.00 0.00 1020.0
20260831084541 0 117 0.0 0.0 0.00 0.00 0.00 1019.8
20260831083028 0 117 0.0 0.0 0.00 0.00 0.00 1019.8
20260831081527 0 117 0.0 0.0 0.00 0.00 0.00 1019.6
20260831080019 0 117 0.0 0.0 0.00 0.00 0.00 1019.6
20260831074531 0 117 0.0 0.0 0.00 0.00 0.00 1019.5
20260831073020 0 117 0.0 0.0 0.00 0.00 0.00 1019.4